Flag for South Africa Weather past 2 weeks in Cape Town, South Africa

Now
59 °F

Passing clouds.


Feels Like: 58 °F
Forecast: 56 / 63 °F
Wind: 8 mph from Southwest

Location: Cape Town International Airport

Current Time: Apr 27, 2015 at 3:03:46 AM

Latest Report: Apr 27, 2015 at 2:00 AM


Visibility: N/A

Pressure: 30.09 "Hg

Humidity: 88%

Dew point: 55 °F

Location of Cape TownLocation

Historic Weather in Cape Town — Graph

°F

Cape Town temperature yesterday

Maximum temperature yesterday: 73 °F (at 2:00 PM)
Minimum temperature yesterday: 55 °F (at 4:00 AM)
Average temperature yesterday: 62 °F

Past Weeks' High & Low Weather Summary

 TemperatureHumidityPressure
High82 °F (Apr 12, 1:00 PM)100% (Apr 12, 8:00 AM)30.36 "Hg (Apr 12, 8:00 AM)
Low46 °F (Apr 16, 6:00 AM)24% (Apr 19, 2:00 PM)29.98 "Hg (Apr 19, 3:00 PM)
Average62 °F71%30.13 "Hg
* Reported Apr 12 6:00 AM — Apr 27 2:00 AM, Cape Town, Weather by CustomWeather, © 2015

Note: Actual official high and low records may vary slightly from our data, if they occured in-between our weather recording intervals... More about our weather records

Advertising

Cape Town weather history for previous 24 hours

 ConditionsComfort  
Time TempWeatherWind HumidityBarometerVisibility
2:00 AM
Mon, Apr 27
59 °FPassing clouds.8 mph88%30.09 "HgN/A
1:00 AM59 °FPassing clouds.9 mph88%30.12 "HgN/A
12:00 AM61 °FPassing clouds.8 mph83%30.12 "HgN/A
11:00 PM
Sun, Apr 26
61 °FPassing clouds.10 mph83%30.12 "HgN/A
10:00 PM61 °FPassing clouds.13 mph88%30.12 "HgN/A
9:00 PM61 °FPassing clouds.10 mph88%30.12 "HgN/A
8:00 PM61 °FPassing clouds.13 mph88%30.12 "HgN/A
7:00 PM63 °FPassing clouds.14 mph83%30.12 "HgN/A
6:00 PM63 °FPassing clouds.17 mph88%30.12 "HgN/A
5:00 PM66 °FPassing clouds.20 mph78%30.12 "HgN/A
4:00 PM70 °FPassing clouds.18 mph69%30.12 "HgN/A
2:00 PM73 °FPassing clouds.17 mph53%30.12 "HgN/A
1:00 PM72 °FPassing clouds.17 mph61%30.15 "HgN/A
12:00 PM72 °FPassing clouds.13 mph61%30.18 "HgN/A
11:00 AM70 °FPassing clouds.12 mph64%30.18 "HgN/A
10:00 AM66 °FPassing clouds.8 mph73%30.18 "HgN/A
9:00 AM61 °FPassing clouds.3 mph94%30.18 "Hg5 mi
8:00 AM55 °FFog.No wind100%30.18 "Hg0 mi
6:00 AM55 °FPassing clouds.3 mph94%30.18 "Hg4 mi
5:00 AM57 °FPassing clouds.6 mph94%30.15 "Hg4 mi
4:00 AM55 °FLight fog.2 mph94%30.18 "Hg1 mi
3:00 AM57 °FPassing clouds.No wind94%30.18 "HgN/A
Weather by CustomWeather, © 2015

See weather overviewHow to use our weather pages